Погода в Рождественском

Россия / Орловская область     52°21′04″N   37°09′28″E
темп.,
°C
ветер,
м/с
пор.,
м/с
влажн.,
%
обл.,
%
осадки,
мм/ч
давл.,
гПа
погр.,
м
17 апреля, сб
сб1700:00+7ююв23780 0.0 101836
03:00+6вюв118159 0.0 101810
06:00+6ююз4682100 0.2 1019217
09:00+6юз3491100 3.1 1019250
12:00+6зсз3386100 3.9 1018418
15:00+8зюз1277100 3.9 1018626
18:00+9юз2473100 0.0 1017654
21:00+6сз118948 0.7 101819
18 апреля, вс
вс1800:00+5юв11905 0.1 101810
03:00+4юз229268 0.1 101826
06:00+4зюз129173 0.0 101834
09:00+7юв227477 0.3 1018335
12:00+10ю3456100 0.4 10181261
15:00+11ююз4452100 0.9 10181394
18:00+7ююз5581100 0.4 1019397
21:00+6ююв2387100 0.9 1019288
19 апреля, пн
пн1900:00+5ююв3592100 3.6 1019764
03:00+6вюв4793100 6.7 1018668
06:00+5в3693100 2.6 1018419
09:00+6в3693100 4.3 1019515
12:00+8юв2585100 0.6 1018418
15:00+10в4774100 2.7 1017564
18:00+10в697597 1.9 1017644
21:00+7в8119191 3.4 1018605
20 апреля, вт
вт2000:00+5всв71193100 1.3 1018582
03:00+5в6119298 1.3 1018535
06:00+5всв61095100 0.0 1017551
09:00+6всв81285100 0.0 1015688
12:00+7всв81487100 0.0 1012726
15:00+6всв101692100 2.8 1007816
18:00+5всв111994100 13.4 1002996
21:00+8в81696100 22.1 996668
21 апреля, ср
ср2100:00+10ююв7149163 1.2 996645
03:00+9ююв9158582 1.4 9971020
06:00+8ююв71294100 0.6 9961048
09:00+3ююз81396100 1.8 1001866
12:00+3юз101696100 0.3 10051007
15:00+5юз91586100 0.3 10101258
18:00+7юз51081100 0.0 1014973
21:00+5ююз51086100 0.1 1017367